Ellsworth AFB, SD

9:30 AM MDT on October 17, 2017 (GMT -0600)
Ellsworth Air Force Base

Weather History for KRCA - March, 2014

Change the Weather History Date:

Monday, March 3, 2014

  Actual Average Record
Temperature  
Mean Temperature 7 °F -  
Max Temperature 18 °F 33 °F 63 °F (2009)
Min Temperature -4 °F 15 °F -4 °F (2002)
Degree Days  
Heating Degree Days 58    
Moisture  
Dew Point 0 °F    
Average Humidity 77    
Maximum Humidity 85    
Minimum Humidity 66    
Precipitation  
Precipitation 0.00 in - - ()
Sea Level Pressure  
Sea Level Pressure 30.11 in    
Wind  
Wind Speed 8 mph (SE)    
Max Wind Speed 14 mph    
Max Gust Speed -    
Visibility 10 miles    
Events      
Averages and records for this station are not official NWS values.
T = Trace of Precipitation, MM = Missing Value Source: NWS Daily Summary

Daily Weather History Graph

Daily Weather History Graph

Search for Another Location

Airport or City:

Trip Planner

Search our weather history database for the weather conditions in past years. The results will help you decide how hot, cold, wet, or windy it might be!

Date:

Astronomy

Mar. 03, 2014 Rise Set
Actual Time 6:25 AM MST 5:43 PM MST
Civil Twilight 5:56 AM MST 6:12 PM MST
Nautical Twilight 5:23 AM MST 6:45 PM MST
Astronomical Twilight 4:49 AM MST 7:19 PM MST
Moon 7:28 AM MST (3/3) 8:56 PM MST (3/3)
Length of Visible Light 12h 15m
Length of Day
11h 17m
Waxing Crescent, 8% of the Moon is Illuminated
Mar 3
Waxing Crescent
Mar 8
First Quarter
Mar 16
Full
Mar 23
Last Quarter
Mar 30
New

Hourly Weather History & Observations

Time (MST) Temp. Windchill Dew Point Humidity Pressure Visibility Wind Dir Wind Speed Gust Speed Precip Events Conditions
12:45 AM -4.0 °F -22.1 °F -7.6 °F 85% 30.01 in 10.0 mi SSE 11.5 mph - N/A   Partly Cloudy
12:55 AM -4.0 °F -23.7 °F -7.6 °F 85% 30.01 in 10.0 mi SSE 13.8 mph - N/A   Mostly Cloudy
12:58 AM -4.0 °F -22.1 °F -7.6 °F 85% 30.27 in 10.0 mi SSE 11.5 mph - N/A   Mostly Cloudy
1:27 AM -2.2 °F -20.7 °F -7.6 °F 78% 29.99 in 10.0 mi SSE 12.7 mph - N/A   Mostly Cloudy
1:58 AM -1.7 °F -20.0 °F -6.7 °F 79% 30.23 in 10.0 mi SE 12.7 mph - N/A   Clear
2:58 AM -0.2 °F -18.2 °F -5.4 °F 79% 30.17 in 10.0 mi SSE 12.7 mph - N/A   Clear
3:58 AM -1.3 °F -13.1 °F -6.0 °F 81% 30.14 in 10.0 mi SE 5.8 mph - N/A   Clear
4:58 AM 1.4 °F - -4.0 °F 78% 30.14 in 10.0 mi Calm Calm - N/A   Clear
5:58 AM -0.9 °F -12.7 °F -6.2 °F 79% 30.13 in 10.0 mi North 5.8 mph - N/A   Overcast
6:58 AM -2.2 °F -12.5 °F -7.2 °F 79% 30.13 in 10.0 mi North 4.6 mph - N/A   Mostly Cloudy
7:58 AM -1.7 °F -16.2 °F -6.9 °F 78% 30.15 in 10.0 mi North 8.1 mph - N/A   Scattered Clouds
8:58 AM -1.3 °F -19.6 °F -7.2 °F 76% 30.17 in 10.0 mi NNW 12.7 mph - N/A   Clear
9:58 AM 2.1 °F -14.4 °F -5.8 °F 69% 30.17 in 10.0 mi North 11.5 mph - N/A   Clear
10:58 AM 4.5 °F -6.3 °F -3.3 °F 70% 30.16 in 10.0 mi North 5.8 mph - N/A   Overcast
11:58 AM 7.5 °F - -1.8 °F 66% 30.13 in 10.0 mi Calm Calm - N/A   Scattered Clouds
12:58 PM 10.2 °F 0.6 °F 1.9 °F 69% 30.09 in 10.0 mi South 5.8 mph - N/A   Partly Cloudy
1:58 PM 15.8 °F - 6.8 °F 68% 30.09 in 10.0 mi SSW 1.2 mph - N/A   Partly Cloudy
2:58 PM 16.7 °F - 8.4 °F 70% 30.08 in 10.0 mi Calm Calm - N/A   Scattered Clouds
3:58 PM 18.0 °F 12.7 °F 9.7 °F 70% 30.08 in 10.0 mi East 3.5 mph - N/A   Partly Cloudy
4:59 PM 18.0 °F 12.7 °F 10.0 °F 71% 30.07 in 10.0 mi SE 3.5 mph - N/A   Clear
5:58 PM 16.3 °F 10.8 °F 9.5 °F 74% 30.08 in 10.0 mi South 3.5 mph - N/A   Clear
6:58 PM 14.7 °F 7.3 °F 8.8 °F 77% 30.10 in 10.0 mi SSE 4.6 mph - N/A   Clear
7:58 PM 13.3 °F - 7.5 °F 78% 30.11 in 10.0 mi East 1.2 mph - N/A   Clear
8:58 PM 11.1 °F - 6.1 °F 80% 30.10 in 10.0 mi East 2.3 mph - N/A   Clear
9:58 PM 10.8 °F - 5.7 °F 80% 30.09 in 10.0 mi ESE 1.2 mph - N/A   Clear
10:58 PM 9.1 °F - 4.6 °F 82% 30.08 in 10.0 mi SSW 2.3 mph - N/A   Clear
11:58 PM 10.4 °F - 5.7 °F 81% 30.05 in 10.0 mi South 2.3 mph - N/A   Clear